Weather History for Hays, KS

Change the Weather History Date:

Friday, December 28, 2012

  Actual Average Record
Temperature  
Mean Temperature 14 °F -  
Max Temperature 23 °F 40 °F 66 °F (1999)
Min Temperature 6 °F 16 °F 6 °F (2012)
Degree Days  
Heating Degree Days 50    
Moisture  
Dew Point 6 °F    
Average Humidity 69    
Maximum Humidity 85    
Minimum Humidity 54    
Precipitation  
Precipitation 0.00 in - - ()
Sea Level Pressure  
Sea Level Pressure 30.03 in    
Wind  
Wind Speed 11 mph (NW)    
Max Wind Speed 21 mph    
Max Gust Speed 24 mph    
Visibility 10 miles    
Events      
Averages and records for this station are not official NWS values.
T = Trace of Precipitation, MM = Missing Value Source: NWS Daily Summary

Daily Weather History Graph

Daily Weather History Graph

Search for Another Location

Airport:

Trip Planner

Search our weather history database for the weather conditions in past years. The results will help you decide how hot, cold, wet, or windy it might be!

Date:

Astronomy

Dec. 28, 2012 Rise Set
Actual Time 7:54 AM CST 5:23 PM CST
Civil Twilight 7:24 AM CST 5:53 PM CST
Nautical Twilight 6:51 AM CST 6:26 PM CST
Astronomical Twilight 6:19 AM CST 6:58 PM CST
Moon 6:00 PM CST (12/28) 7:50 AM CST (12/28)
Length of Visible Light 10h 28m
Length of Day
9h 28m
Full, 100% of the Moon is Illuminated
Dec 28
Full
Jan 4
Last Quarter
Jan 11
New
Jan 18
First Quarter
Jan 26
Full

Hourly Weather History & Observations

Time (CST) Temp. Windchill Dew Point Humidity Pressure Visibility Wind Dir Wind Speed Gust Speed Precip Events Conditions
12:15 AM 21.2 °F 10.1 °F 12.2 °F 68% 29.97 in 10.0 mi WNW 10.4 mph - N/A   Overcast
12:35 AM 19.4 °F 8.6 °F 12.2 °F 74% 29.97 in 10.0 mi WNW 9.2 mph - N/A   Overcast
12:55 AM 19.4 °F 8.6 °F 10.4 °F 68% 29.97 in 10.0 mi WNW 9.2 mph - N/A   Overcast
1:15 AM 17.6 °F 6.4 °F 8.6 °F 68% 29.98 in 10.0 mi WNW 9.2 mph - N/A   Overcast
1:35 AM 17.6 °F 5.7 °F 8.6 °F 68% 29.97 in 10.0 mi NW 10.4 mph - N/A   Overcast
1:55 AM 14.0 °F 5.1 °F 6.8 °F 73% 29.97 in 10.0 mi NW 5.8 mph - N/A   Scattered Clouds
2:15 AM 14.0 °F 2.9 °F 6.8 °F 73% 29.98 in 10.0 mi NW 8.1 mph - N/A   Clear
2:35 AM 12.2 °F -0.2 °F 6.8 °F 79% 29.98 in 10.0 mi NW 9.2 mph - N/A   Clear
2:55 AM 12.2 °F -0.2 °F 6.8 °F 79% 29.99 in 10.0 mi NW 9.2 mph - N/A   Clear
3:15 AM 12.2 °F -0.2 °F 6.8 °F 79% 29.99 in 10.0 mi NW 9.2 mph - N/A   Partly Cloudy
3:35 AM 12.2 °F -0.2 °F 6.8 °F 79% 30.00 in 10.0 mi NW 9.2 mph - N/A   Mostly Cloudy
3:55 AM 10.4 °F -0.4 °F 5.0 °F 79% 29.99 in 10.0 mi NW 6.9 mph - N/A   Partly Cloudy
4:15 AM 10.4 °F -2.4 °F 3.2 °F 73% 29.99 in 10.0 mi NW 9.2 mph - N/A   Clear
4:35 AM 10.4 °F -3.3 °F 5.0 °F 79% 29.99 in 10.0 mi NW 10.4 mph - N/A   Clear
4:55 AM 10.4 °F -4.1 °F 3.2 °F 73% 29.99 in 10.0 mi NW 11.5 mph - N/A   Clear
5:15 AM 10.4 °F -4.1 °F 3.2 °F 73% 29.99 in 10.0 mi NW 11.5 mph - N/A   Clear
5:35 AM 8.6 °F -6.3 °F 3.2 °F 79% 29.99 in 10.0 mi NW 11.5 mph - N/A   Clear
5:55 AM 8.6 °F -7.7 °F 3.2 °F 79% 29.99 in 10.0 mi NW 13.8 mph - N/A   Clear
6:15 AM 8.6 °F -6.3 °F 3.2 °F 79% 30.00 in 10.0 mi NW 11.5 mph - N/A   Clear
6:35 AM 8.6 °F -5.5 °F 3.2 °F 79% 30.00 in 10.0 mi NW 10.4 mph - N/A   Clear
6:55 AM 10.4 °F -3.3 °F 3.2 °F 73% 29.99 in 10.0 mi NW 10.4 mph - N/A   Clear
7:15 AM 8.6 °F -7.0 °F 3.2 °F 79% 30.00 in 10.0 mi NW 12.7 mph - N/A   Clear
7:35 AM 8.6 °F -8.9 °F 3.2 °F 79% 30.00 in 10.0 mi NW 16.1 mph - N/A   Clear
7:55 AM 8.6 °F -8.3 °F 3.2 °F 79% 30.00 in 10.0 mi NW 15.0 mph - N/A   Clear
8:15 AM 8.6 °F -8.9 °F 3.2 °F 79% 30.00 in 10.0 mi NNW 16.1 mph - N/A   Clear
8:35 AM 10.4 °F -4.1 °F 3.2 °F 73% 30.01 in 10.0 mi NW 11.5 mph - N/A   Clear
8:55 AM 10.4 °F -4.1 °F 3.2 °F 73% 30.02 in 10.0 mi NW 11.5 mph - N/A   Clear
9:15 AM 12.2 °F -3.1 °F 3.2 °F 67% 30.02 in 10.0 mi NW 13.8 mph - N/A   Clear
9:35 AM 12.2 °F -3.1 °F 5.0 °F 73% 30.03 in 10.0 mi NNW 13.8 mph - N/A   Clear
9:55 AM 14.0 °F -1.4 °F 6.8 °F 73% 30.04 in 10.0 mi NNW 15.0 mph - N/A   Clear
10:15 AM 15.8 °F -0.2 °F 6.8 °F 68% 30.05 in 10.0 mi NNW 17.3 mph - N/A   Clear
10:35 AM 17.6 °F 2.2 °F 6.8 °F 63% 30.05 in 10.0 mi NW 17.3 mph 21.9 mph N/A   Clear
10:55 AM 17.6 °F 0.9 °F 8.6 °F 68% 30.06 in 10.0 mi NNW 20.7 mph - N/A   Clear
11:15 AM 19.4 °F 3.2 °F 8.6 °F 63% 30.05 in 10.0 mi NNW 20.7 mph 24.2 mph N/A   Clear
11:35 AM 19.4 °F 3.6 °F 6.8 °F 58% 30.05 in 10.0 mi NNW 19.6 mph - N/A   Clear
12:15 PM 19.4 °F 6.0 °F 8.6 °F 63% 30.04 in 10.0 mi NNW 13.8 mph - N/A   Clear
12:35 PM 21.2 °F 7.3 °F 8.6 °F 58% 30.03 in 10.0 mi NNW 16.1 mph - N/A   Clear
12:55 PM 21.2 °F 8.3 °F 8.6 °F 58% 30.03 in 10.0 mi NW 13.8 mph 18.4 mph N/A   Clear
1:15 PM 21.2 °F 7.8 °F 8.6 °F 58% 30.02 in 10.0 mi NNW 15.0 mph 19.6 mph N/A   Clear
1:35 PM 21.2 °F 7.3 °F 8.6 °F 58% 30.01 in 10.0 mi NNW 16.1 mph - N/A   Clear
1:55 PM 21.2 °F 7.8 °F 8.6 °F 58% 30.01 in 10.0 mi North 15.0 mph 18.4 mph N/A   Clear
2:15 PM 21.2 °F 8.3 °F 8.6 °F 58% 30.01 in 10.0 mi NNW 13.8 mph - N/A   Clear
2:35 PM 23.0 °F 10.6 °F 8.6 °F 54% 30.01 in 10.0 mi NNW 13.8 mph - N/A   Clear
2:55 PM 23.0 °F 11.1 °F 8.6 °F 54% 30.01 in 10.0 mi NNW 12.7 mph - N/A   Clear
3:15 PM 23.0 °F 11.1 °F 8.6 °F 54% 30.02 in 10.0 mi NNW 12.7 mph - N/A   Clear
3:35 PM 23.0 °F 11.1 °F 8.6 °F 54% 30.02 in 10.0 mi NNW 12.7 mph - N/A   Clear
3:55 PM 23.0 °F 11.7 °F 8.6 °F 54% 30.02 in 10.0 mi NNW 11.5 mph - N/A   Clear
4:15 PM 23.0 °F 11.7 °F 8.6 °F 54% 30.03 in 10.0 mi NW 11.5 mph - N/A   Clear
4:35 PM 21.2 °F 8.9 °F 8.6 °F 58% 30.04 in 10.0 mi NNW 12.7 mph - N/A   Clear
4:55 PM 21.2 °F 8.9 °F 8.6 °F 58% 30.04 in 10.0 mi NW 12.7 mph - N/A   Clear
5:15 PM 21.2 °F 11.7 °F 8.6 °F 58% 30.05 in 10.0 mi NNW 8.1 mph - N/A   Clear
5:35 PM 19.4 °F 9.5 °F 6.8 °F 58% 30.05 in 10.0 mi NW 8.1 mph - N/A   Clear
5:55 PM 19.4 °F 10.4 °F 6.8 °F 58% 30.05 in 10.0 mi NW 6.9 mph - N/A   Clear
6:15 PM 17.6 °F 8.2 °F 6.8 °F 63% 30.06 in 10.0 mi NW 6.9 mph - N/A   Clear
6:35 PM 17.6 °F 9.3 °F 8.6 °F 68% 30.07 in 10.0 mi NW 5.8 mph - N/A   Clear
6:55 PM 15.8 °F 7.2 °F 6.8 °F 68% 30.08 in 10.0 mi NW 5.8 mph - N/A   Clear
7:15 PM 15.8 °F 7.2 °F 6.8 °F 68% 30.08 in 8.0 mi NNW 5.8 mph - N/A   Clear
7:35 PM 15.8 °F 7.2 °F 6.8 °F 68% 30.07 in 10.0 mi NW 5.8 mph - N/A   Clear
7:55 PM 10.4 °F 0.8 °F 3.2 °F 73% 30.08 in 10.0 mi WNW 5.8 mph - N/A   Clear
8:15 PM 12.2 °F 2.9 °F 6.8 °F 79% 30.09 in 10.0 mi WNW 5.8 mph - N/A   Clear
8:35 PM 10.4 °F 2.2 °F 1.4 °F 67% 30.09 in 10.0 mi WNW 4.6 mph - N/A   Clear
8:55 PM 8.6 °F 2.0 °F 3.2 °F 79% 30.09 in 10.0 mi WNW 3.5 mph - N/A   Clear
9:15 PM 8.6 °F 0.1 °F 1.4 °F 73% 30.09 in 10.0 mi WNW 4.6 mph - N/A   Clear
9:35 PM 8.6 °F -1.3 °F 3.2 °F 79% 30.09 in 10.0 mi NW 5.8 mph - N/A   Clear
9:55 PM 8.6 °F 0.1 °F 3.2 °F 79% 30.10 in 10.0 mi West 4.6 mph - N/A   Clear
10:15 PM 6.8 °F -2.0 °F 1.4 °F 79% 30.09 in 10.0 mi WNW 4.6 mph - N/A   Clear
10:35 PM 8.6 °F -1.3 °F 3.2 °F 79% 30.10 in 10.0 mi WNW 5.8 mph - N/A   Clear
10:55 PM 6.8 °F -4.8 °F -0.4 °F 72% 30.11 in 10.0 mi West 6.9 mph - N/A   Clear
11:15 PM 6.8 °F -4.8 °F 1.4 °F 79% 30.11 in 10.0 mi WNW 6.9 mph - N/A   Clear
11:35 PM 8.6 °F -2.6 °F 5.0 °F 85% 30.12 in 10.0 mi WNW 6.9 mph - N/A   Clear
11:55 PM 10.4 °F 0.8 °F 3.2 °F 73% 30.12 in 10.0 mi WNW 5.8 mph - N/A   Clear